Location: Antin
(43.3330°N, 0.2804°E)
Time: 23:09:31
(UTC+00:00)

SME Rocket - Pass Details

Date: 29 May 2022
Orbit: 551 x 2650 km, 99.9° (Epoch: 01 July)

Event Time Altitude Azimuth Distance (km) Brightness Sun altitude
Exits shadow 02:19:32 24° 257° (WSW) 1,354 4.4 -17.2°
Maximum altitude 02:20:03 24° 268° (W) 1,360 4.5 -17.2°
Drops below altitude 10° 02:24:05 10° 323° (NW) 2,388 6.3 -16.7°
Sets 02:27:16 0° 336° (NNW) 3,617 7.4 -16.4°
